Tracking 17842 objects as of 29-August-2016
HD Live streaming from Space Station
objects crossing your sky now

COSMOS 1481 DEB

Track COSMOS 1481 DEB now!


NORAD ID: 14192
Int'l Code: 1983-070E
Perigee: 1,902.3 km
Apogee: 38,024.9 km
Inclination: 67.3 °
Period: 708.8 minutes
Semi major axis: 26334 km
RCS: 2.531 m2 (large)
Launch date: July 8, 1983
Source: Commonwealth of Independent States (former USSR) (CIS)
Launch site: PLESETSK MISSILE AND SPACE COMPLEX (PKMTR)

Note: This is SATELLITE DEBRIS
Your satellite tracking list
Your tracking list is empty





NASA's NSSDC Master Catalog

Two Line Element Set (TLE):
1 14192U 83070E   16240.66629925 -.00000946 +00000-0 +00000-0 0  9993
2 14192 067.2580 114.4306 6858391 007.3129 003.0634 02.03148378166890
Source of the keplerian elements: AFSPC

N2YO: 596